Location: Bonningues
(50.7927°N, 2.0150°E)
Time: 17:49:29
(UTC+00:00)

Cosmos 1862 - Pass Details

Date: 08 August 2020
Orbit: 537 x 557 km, 82.5° (Epoch: 25 September)

Event Time Altitude Azimuth Distance (km) Brightness Sun altitude
Rises 19:56:37 0° 176° (S) 2,725 6.5 -5.2°
Reaches altitude 10° 19:58:48 10° 172° (S) 1,837 5.6 -5.5°
Maximum altitude 20:02:45 54° 95° (E) 688 3.5 -6.0°
Drops below altitude 10° 20:06:44 10° 19° (NNE) 1,857 6.2 -6.5°
Sets 20:08:57 0° 14° (NNE) 2,758 7.2 -6.8°
